Wind_Speed
21 20 19 19 19 19 19 19 19 18 18 17 17 17 16 16 16 15 14 16 16 15 14 16 17 18 19 21 19 20 24 24 16 24 25 26 28 28 22 23 23 25 26
19 18 17 17 18 18 19 20 19 19 17 18 16 16 16 16 18 13 13 16 18 19 18 16 16 16 17 19 21 22 22 22 25 20 25 25 25 26 27 27 26 29 30
18 17 16 16 18 19 19 18 17 19 18 17 17 17 17 16 17 13 14 16 15 17 18 18 17 17 17 17 17 19 21 23 25 24 22 26 25 25 26 28 29 29 30
18 17 16 17 17 17 18 19 19 20 18 16 19 17 17 17 14 16 18 19 19 17 16 18 17 15 14 16 18 19 20 19 16 18 19 24 24 24 24 26 29 29 30
17 17 17 16 16 17 18 18 18 19 18 18 19 17 17 15 12 19 19 21 22 19 17 15 16 16 15 12 13 14 16 18 18 17 16 17 19 20 21 24 26 28 27
16 16 16 18 18 19 19 18 17 18 17 17 17 17 17 16 17 17 16 19 20 18 19 19 17 13 16 12 9 10 11 17 19 20 19 15 21 24 24 24 20 18 8
15 15 18 19 19 19 19 18 17 17 16 16 16 14 15 15 14 15 17 16 18 20 20 19 18 15 14 15 14 16 19 19 18 21 20 21 21 26 26 25 24 24 21
14 16 17 18 18 19 19 17 16 17 16 15 14 13 13 10 16 18 18 16 19 19 19 19 21 20 17 17 18 19 20 22 21 23 23 18 20 20 20 22 24 25 25
15 17 17 16 18 17 17 18 18 17 15 13 13 11 14 17 19 20 22 20 18 19 18 18 19 20 22 20 22 21 22 26 23 20 26 29 30 29 28 27 28 22 19
14 14 14 15 14 15 14 15 14 12 10 10 12 15 14 19 19 22 19 16 17 18 18 19 19 21 20 20 19 20 19 22 21 22 24 26 25 23 20 20 25 23 21
12 11 12 11 13 12 12 12 11 10 10 11 12 14 17 18 19 18 18 17 18 15 16 19 21 22 20 20 19 21 19 19 21 19 21 22 22 24 24 26 24 21 19
11 9 10 10 10 9 11 12 12 12 11 12 12 12 12 15 17 18 18 20 19 15 16 19 21 21 21 21 22 21 20 21 21 21 21 23 25 26 30 30 29 29 26
11 8 9 9 8 6 10 10 12 12 10 10 9 10 13 15 19 18 17 19 19 18 17 18 19 20 21 23 23 22 23 24 22 22 21 22 22 23 24 27 33 31 30
10 7 7 5 8 5 5 6 6 8 11 12 14 14 14 15 19 21 19 19 19 17 16 18 19 19 20 21 24 25 24 24 22 20 20 21 22 25 25 26 25 26 24
8 8 3 5 5 5 5 1 3 4 5 9 11 11 12 14 16 16 16 16 17 15 14 16 21 22 23 23 24 24 24 24 24 23 23 23 23 23 23 26 24 25 22
7 8 6 4 5 4 4 2 1 4 4 4 5 8 11 10 12 14 15 13 14 14 15 17 18 20 20 22 22 22 22 23 24 23 23 23 23 25 25 25 24 23 22
7 7 5 5 4 3 4 4 6 4 6 1 4 6 9 11 11 13 14 12 13 13 16 16 16 17 18 19 20 21 22 23 23 21 22 23 24 24 26 24 25 24 23
8 7 5 4 3 2 2 4 4 5 7 6 6 7 9 12 10 10 11 11 13 13 14 15 15 16 17 17 19 20 21 22 23 23 22 22 23 23 24 23 25 26 25
7 7 6 4 5 4 3 3 3 4 6 8 8 7 10 12 9 9 9 11 12 13 14 14 14 16 17 18 18 18 19 19 20 21 21 22 24 24 24 24 24 27 29
9 9 8 8 6 6 5 4 5 6 7 8 9 10 12 14 13 10 11 11 11 12 13 14 15 16 17 18 19 20 19 19 19 20 20 22 24 24 24 26 24 25 26
10 9 9 9 9 8 8 8 7 9 10 11 12 11 11 13 15 13 13 14 13 15 15 16 17 17 17 18 19 20 20 20 21 21 20 24 26 26 26 27 25 26 26
11 11 11 11 10 11 10 9 11 11 12 13 14 13 13 14 15 15 16 17 17 17 17 18 18 19 19 19 20 21 22 21 22 22 21 24 26 27 28 28 28 27 26
14 14 13 14 14 13 13 14 15 14 14 15 15 16 16 16 17 18 19 19 19 20 20 19 20 21 21 22 23 22 23 24 25 24 24 26 27 28 28 28 29 28 25
16 15 16 15 15 15 15 15 15 15 15 17 17 17 17 18 19 19 20 20 21 21 21 21 21 22 23 26 25 24 25 26 27 26 28 29 29 29 30 29 29 28 27
18 16 16 16 17 17 17 17 17 17 18 18 19 19 20 20 21 21 21 21 22 23 23 23 22 25 29 27 27 30 29 25 26 27 30 31 32 32 30 28 30 28 27
20 18 18 18 18 17 18 18 19 19 19 19 20 21 21 22 22 23 24 24 25 25 26 27 30 30 27 29 32 29 25 26 28 30 32 34 32 30 28 28 30 29 30
Wind_Direction
19 20 22 23 20 21 20 17 13 11 11 13 12 11 10 7 8 4 6 2 352 333 314 302 297 289 281 278 279 269 261 258 261 275 277 279 282 284 280 274 276 275 275
11 9 11 12 11 10 7 6 4 2 2 4 2 5 5 4 3 357 356 357 355 351 344 336 322 318 300 287 277 275 276 273 260 267 278 281 282 283 282 284 281 275 275
2 1 4 8 4 1 357 351 353 355 353 351 355 355 356 356 354 349 352 349 345 341 341 338 333 327 319 314 309 290 282 275 270 269 275 280 283 285 285 280 278 279 278
357 358 0 1 356 354 351 348 348 347 344 345 348 345 345 345 343 346 344 336 331 329 330 331 328 331 335 328 319 314 311 310 314 298 278 282 283 287 283 282 281 280 278
351 351 353 354 351 347 345 344 342 340 341 343 341 346 348 347 354 348 348 338 330 323 320 325 325 327 330 335 333 328 322 320 318 314 303 308 301 290 279 285 278 283 282
347 344 351 353 351 347 344 340 338 338 337 338 341 343 345 344 345 347 354 343 339 330 325 325 323 330 336 337 334 330 335 346 334 305 293 283 289 292 294 305 316 308 291
348 359 355 348 343 340 338 337 337 337 337 334 334 337 342 346 7 6 356 346 349 357 360 2 6 8 8 358 348 337 329 328 322 326 320 290 285 296 300 294 294 293 286
0 359 352 346 343 344 343 349 349 340 332 331 337 341 351 24 23 15 8 357 346 342 346 350 358 351 6 7 353 345 340 327 317 320 322 325 316 309 308 304 302 295 289
3 350 345 350 346 340 342 342 334 335 343 339 345 8 43 35 23 13 6 356 351 346 346 353 348 342 345 350 350 341 332 324 324 316 310 305 302 300 299 299 298 294 291
348 342 352 344 340 339 345 338 341 352 4 20 36 40 39 33 22 20 10 8 2 355 360 360 355 346 343 352 9 7 357 349 341 325 323 319 323 317 313 304 292 274 279
339 350 350 355 350 354 356 358 8 20 30 37 47 45 41 33 26 18 20 18 12 10 7 13 14 14 19 16 17 7 1 357 355 353 350 355 354 352 348 351 344 334 326
331 346 345 358 1 3 10 11 21 27 32 36 42 37 34 30 24 20 22 22 22 20 18 19 15 16 20 21 20 12 12 15 13 12 9 6 359 354 348 346 332 330 331
327 343 346 2 358 19 18 17 22 23 25 40 36 35 26 30 21 19 22 21 23 26 25 22 22 24 24 26 23 22 21 19 16 12 7 1 356 351 349 352 347 340 328
323 336 335 343 349 354 34 25 40 22 20 27 22 25 28 21 16 16 18 19 21 26 25 23 23 24 25 23 20 20 18 18 14 7 1 355 356 358 357 355 349 348 345
323 318 330 343 350 4 9 356 44 23 31 31 28 23 22 15 12 13 14 19 19 23 23 23 21 19 16 14 13 11 10 9 7 3 360 355 353 352 351 351 350 347 346
312 324 349 336 342 13 4 331 270 2 27 48 32 22 16 10 7 11 14 18 20 23 29 24 20 16 12 9 7 4 3 0 358 357 356 355 351 348 346 345 346 347 342
285 301 300 323 340 355 359 359 353 350 251 287 13 8 11 6 6 9 11 16 19 20 24 18 14 10 7 5 2 360 353 351 352 353 351 350 348 345 343 341 340 339 339
273 266 272 285 288 302 336 342 342 344 342 339 337 340 353 359 358 2 5 9 14 17 15 8 2 359 357 356 355 352 349 347 349 346 344 344 343 339 338 335 337 332 331
260 256 254 248 260 270 274 286 309 312 314 316 323 328 332 347 353 351 356 2 357 355 353 352 351 348 346 345 344 343 343 341 342 337 336 336 336 335 330 330 327 331 328
254 251 255 243 249 252 256 267 285 293 300 304 311 318 321 332 343 338 339 338 336 333 334 333 333 335 337 336 336 336 335 333 333 333 332 334 330 326 325 324 323 324 322
248 247 248 247 247 252 256 261 270 279 287 291 296 304 306 307 316 313 315 319 317 319 318 320 322 323 325 327 327 329 327 324 324 324 324 329 326 321 320 320 317 319 319
242 245 245 249 252 252 259 259 264 270 276 282 291 296 299 298 301 300 303 305 305 307 308 309 310 313 313 318 318 318 318 317 317 316 315 321 319 317 316 315 318 315 315
236 242 244 249 251 253 254 259 271 267 272 276 281 290 293 293 294 295 296 298 300 300 301 303 303 305 305 308 311 307 310 309 312 310 311 315 314 312 313 312 313 311 310
233 240 245 248 253 255 255 258 261 268 270 277 280 281 284 288 290 292 293 295 296 296 297 296 298 299 298 303 305 304 305 305 308 305 309 309 307 306 308 306 308 307 307
240 242 246 251 254 256 261 263 267 269 273 273 278 280 282 285 288 290 291 293 295 297 297 297 296 295 297 302 297 301 304 301 301 306 308 304 301 300 303 304 307 307 306
239 243 245 251 256 261 263 266 268 270 271 275 277 279 282 284 286 287 290 293 296 296 296 296 298 302 299 294 300 303 303 301 303 305 304 304 303 298 299 304 306 307 307
Height
858 856 854 852 850 849 848 847 845 843 841 839 837 835 832 830 828 826 824 823 822 821 820 819 818 818 817 817 817 816 815 815 813 809 810 810 809 808 808 806 805 804 804
860 859 857 854 852 851 849 848 846 844 842 840 838 836 833 831 829 826 825 823 821 820 819 817 816 815 813 813 812 812 811 811 810 807 805 806 806 805 803 801 800 798 798
861 859 857 855 854 852 850 848 846 844 842 840 838 835 833 831 829 826 824 823 821 820 818 816 814 812 811 810 808 807 806 805 804 802 800 800 800 800 798 797 795 794 793
862 860 858 856 854 852 850 848 846 844 841 839 837 835 833 831 828 825 823 822 820 818 816 815 813 811 809 807 805 804 803 802 800 799 797 794 795 794 793 791 788 788 787
862 861 859 856 854 852 850 848 846 844 841 839 836 834 832 830 828 824 822 820 818 816 814 812 811 809 807 805 803 802 801 799 798 796 795 793 790 789 788 786 783 781 780
862 861 859 856 854 851 849 847 845 843 841 838 835 833 831 830 828 825 822 819 817 815 812 810 809 807 805 803 801 800 800 799 797 795 793 791 788 786 786 784 780 778 775
862 860 858 856 854 851 848 846 844 842 839 837 835 833 830 829 826 824 822 819 817 814 812 809 806 805 802 800 798 798 797 796 795 794 790 788 785 783 781 778 776 775 773
861 860 858 856 853 850 847 845 843 840 838 836 834 832 830 828 825 823 821 818 816 814 812 809 807 805 802 801 798 796 796 794 793 790 789 786 783 780 778 775 772 770 768
860 859 857 854 852 849 847 844 842 840 837 835 834 831 829 828 826 823 820 818 816 813 811 808 807 805 802 800 797 795 793 791 789 787 784 780 777 775 774 771 767 765 761
861 859 857 855 852 849 847 844 842 840 837 836 834 833 832 830 828 824 822 819 816 814 811 809 807 805 802 800 796 794 792 789 786 782 780 776 773 770 769 768 765 760 757
860 858 856 854 852 850 847 845 842 840 838 837 836 835 833 831 830 827 824 821 818 815 813 811 808 805 803 800 798 797 794 789 785 782 779 775 771 769 766 764 763 761 757
859 857 855 853 852 850 848 846 843 841 839 838 837 836 835 834 832 829 826 823 820 818 815 814 812 809 806 803 800 798 794 790 787 783 780 777 774 771 766 763 759 755 752
857 855 854 852 851 849 848 847 845 843 841 840 839 838 836 835 833 830 828 825 823 820 819 817 815 812 809 806 803 800 796 793 790 787 784 782 779 775 770 764 757 753 748
855 853 852 851 850 849 847 847 846 845 844 842 840 839 837 836 833 831 829 827 824 822 821 819 817 814 812 809 805 802 799 797 795 792 789 785 780 775 770 767 762 757 752
853 852 850 849 849 848 847 847 846 845 845 844 842 841 839 837 835 833 830 828 826 824 822 820 817 814 812 809 807 805 802 799 796 793 790 786 781 777 773 768 764 759 755
852 850 849 848 847 847 846 846 846 845 844 844 843 842 840 838 836 834 831 829 828 826 823 821 820 818 815 813 810 807 805 801 798 795 792 788 784 779 774 769 765 761 756
849 848 847 847 846 845 845 845 844 844 843 843 843 842 840 838 836 834 831 830 828 826 824 823 822 820 818 815 813 810 806 803 800 797 794 789 785 781 776 771 766 761 755
846 846 845 845 844 844 844 844 843 843 843 843 842 841 839 837 835 834 832 830 828 826 825 824 822 820 818 815 813 810 807 803 800 797 793 790 786 781 776 771 767 761 755
843 843 842 842 842 842 842 842 842 842 841 841 840 839 837 835 833 832 831 829 827 825 824 822 821 819 817 814 812 809 807 804 801 797 793 789 785 780 775 770 766 761 755
839 840 840 840 840 840 840 839 839 839 839 838 837 836 835 833 831 830 829 827 826 824 823 821 818 816 814 812 810 807 804 801 798 795 791 787 783 779 774 768 763 758 752
836 836 837 837 836 837 836 836 836 836 835 835 834 833 832 830 829 827 826 824 823 821 819 817 815 813 811 809 807 804 801 798 795 792 788 784 779 774 770 765 760 754 749
832 832 833 833 833 833 832 832 832 831 831 831 830 829 829 827 826 824 822 821 819 817 816 813 811 809 807 805 803 801 798 795 791 788 784 780 776 771 766 760 755 749 744
827 827 828 828 828 828 828 828 828 827 827 827 826 825 824 823 822 820 818 816 815 813 811 809 806 804 802 800 798 796 793 790 786 783 779 775 770 766 761 755 750 744 739
821 822 822 823 824 824 824 824 823 823 823 822 821 820 819 818 817 815 814 812 810 808 806 804 801 799 797 795 792 790 787 784 780 777 773 768 764 759 755 750 745 739 734
817 818 818 819 819 819 819 819 819 818 818 817 816 815 814 812 811 810 808 806 804 802 800 798 796 793 790 787 785 782 779 776 774 770 766 761 756 751 747 743 738 732 728
812 812 813 814 814 815 815 814 814 813 813 812 811 810 808 807 805 804 802 800 798 796 793 791 788 785 782 780 777 774 771 769 765 762 758 753 748 743 738 735 730 725 720